Weather History for KNDZ - November, 2012

Change the Weather History Date:

Thursday, November 1, 2012

  Actual Average (KNSE) Record (KNSE)
Temperature  
Mean Temperature 62 °F -  
Max Temperature 75 °F 73 °F 84 °F (2000)
Min Temperature 48 °F 54 °F 39 °F (2014)
Degree Days  
Heating Degree Days 4    
Growing Degree Days 12 (Base 50)    
Moisture  
Dew Point 47 °F    
Average Humidity 63    
Maximum Humidity 93    
Minimum Humidity 28    
Precipitation  
Precipitation 0.00 in - - ()
Sea Level Pressure  
Sea Level Pressure 29.98 in    
Wind  
Wind Speed 4 mph (NNW)    
Max Wind Speed 12 mph    
Max Gust Speed 22 mph    
Visibility 10 miles    
Events      
Averages and records for this station are not official NWS values.
T = Trace of Precipitation, MM = Missing Value Source: NWS Daily Summary

Daily Weather History Graph

Daily Weather History Graph

Search for Another Location

Airport or City:

Trip Planner

Search our weather history database for the weather conditions in past years. The results will help you decide how hot, cold, wet, or windy it might be!

Date:

Astronomy

Nov. 01, 2012 Rise Set
Actual Time 7:03 AM CDT 5:59 PM CDT
Civil Twilight 6:38 AM CDT 6:24 PM CDT
Nautical Twilight 6:09 AM CDT 6:53 PM CDT
Astronomical Twilight 5:41 AM CDT 7:21 PM CDT
Moon 8:04 PM CDT (11/1) 9:27 AM CDT (11/1)
Length of Visible Light 11h 46m
Length of Day
10h 56m
Waning Gibbous, 93% of the Moon is Illuminated
Nov 1
Waning Gibbous
Nov 6
Last Quarter
Nov 13
New
Nov 20
First Quarter
Nov 28
Full

Hourly Weather History & Observations

Time (CDT) Temp. Dew Point Humidity Pressure Visibility Wind Dir Wind Speed Gust Speed Precip Events Conditions
12:56 AM 63.0 °F 57.9 °F 84% 29.93 in 10.0 mi Calm Calm - N/A   Partly Cloudy
1:56 AM 63.0 °F 59.0 °F 87% 29.93 in 10.0 mi West 4.6 mph - N/A   Mostly Cloudy
2:31 AM 62.6 °F 59.0 °F 88% 29.98 in 10.0 mi NNW 11.5 mph - N/A   Overcast
2:56 AM 62.1 °F 57.9 °F 86% 29.94 in 10.0 mi NW 4.6 mph - N/A   Scattered Clouds
3:56 AM 60.1 °F 57.9 °F 93% 29.93 in 10.0 mi Calm Calm - N/A   Overcast
4:56 AM 59.0 °F 55.9 °F 90% 29.94 in 10.0 mi North 5.8 mph - N/A   Mostly Cloudy
5:56 AM 55.9 °F 51.1 °F 84% 29.96 in 10.0 mi North 5.8 mph - N/A   Clear
6:56 AM 54.0 °F 48.9 °F 83% 29.98 in 10.0 mi North 4.6 mph - N/A   Clear
7:56 AM 57.0 °F 48.0 °F 72% 30.00 in 10.0 mi North 5.8 mph - N/A   Clear
8:56 AM 61.0 °F 42.1 °F 50% 30.02 in 10.0 mi NE 4.6 mph - N/A   Clear
9:56 AM 64.9 °F 39.0 °F 39% 30.04 in 10.0 mi NE 5.8 mph - N/A   Clear
10:56 AM 70.0 °F 37.0 °F 30% 30.04 in 10.0 mi NNE 6.9 mph - N/A   Clear
11:56 AM 72.0 °F 37.9 °F 29% 30.02 in 10.0 mi Variable 3.5 mph - N/A   Clear
12:56 PM 73.9 °F 39.0 °F 28% 29.99 in 10.0 mi NW 6.9 mph - N/A   Clear
1:56 PM 75.0 °F 39.9 °F 28% 29.96 in 10.0 mi NNW 9.2 mph 16.1 mph N/A   Clear
2:56 PM 75.0 °F 41.0 °F 29% 29.94 in 10.0 mi NW 6.9 mph 21.9 mph N/A   Clear
3:56 PM 75.0 °F 42.1 °F 31% 29.94 in 10.0 mi WNW 6.9 mph - N/A   Clear
4:56 PM 73.0 °F 42.1 °F 33% 29.94 in 10.0 mi NW 5.8 mph - N/A   Clear
5:56 PM 66.9 °F 44.1 °F 44% 29.96 in 10.0 mi NW 5.8 mph - N/A   Clear
6:56 PM 61.0 °F 45.0 °F 56% 29.98 in 10.0 mi NW 3.5 mph - N/A   Clear
7:56 PM 57.0 °F 46.9 °F 69% 29.99 in 10.0 mi Calm Calm - N/A   Clear
8:56 PM 54.0 °F 46.0 °F 75% 30.00 in 10.0 mi Calm Calm - N/A   Clear
9:56 PM 50.0 °F 46.0 °F 86% 30.01 in 10.0 mi Calm Calm - N/A   Clear
10:56 PM 48.9 °F 45.0 °F 86% 30.01 in 10.0 mi Calm Calm - N/A   Clear
11:56 PM 48.9 °F 44.1 °F 83% 30.01 in 10.0 mi WNW 4.6 mph - N/A   Clear